Overview Statistics Trail Chart Weather Telemetry Raw packets
 

This is the latest recevied weather packets stored in our database for station/object W0CHP-13. If no packets are shown the sender has not sent any weather packets the latest 10 day(s).

<< 31 32 33 34 35 36 37 >>
Time Temp. Humidity Pressure Rain* Wind** Luminosity Snow
1788228615 26.67° C 84% 1010.6 hPa 0 mm - 0 W/m² -
1788228017 27.22° C 86% 1010.6 hPa 0 mm - 0 W/m² -
1788227417 27.22° C 82% 1010.6 hPa 0 mm - 0 W/m² -
1788226815 27.22° C 81% 1010.6 hPa 0 mm - 0 W/m² -
1788226219 27.78° C 79% 1010.3 hPa 0 mm - 0 W/m² -
1788225617 27.78° C 78% 1010.3 hPa 0 mm - 0 W/m² -
1788225018 28.33° C 77% 1010.3 hPa 0 mm - 0 W/m² -
1788224415 28.89° C 73% 1010.6 hPa 0 mm - 0 W/m² -
1788223817 29.44° C 73% 1010.3 hPa 0 mm - 1 W/m² -
1788223215 29.44° C 72% 1010 hPa 0 mm - 3 W/m² -
1788222617 30° C 71% 1010 hPa 0 mm - 7 W/m² -
1788222016 30° C 69% 1009.9 hPa 0 mm - 11 W/m² -
1788221418 30.56° C 68% 1009.9 hPa 0 mm - 15 W/m² -
1788220816 30.56° C 67% 1009.6 hPa 0 mm - 19 W/m² -
1788220215 31.11° C 66% 1009.9 hPa 0 mm - 45 W/m² -
1788219617 31.11° C 65% 1009.9 hPa 0 mm - 69 W/m² -
1788219016 31.67° C 64% 1009.9 hPa 0 mm - 79 W/m² -
1788218418 31.67° C 64% 1009.6 hPa 0 mm - 81 W/m² -
1788217818 31.67° C 64% 1009.9 hPa 0 mm - 114 W/m² -
1788217216 32.22° C 65% 1009.6 hPa 0 mm - 127 W/m² -
1788216618 32.22° C 65% 1009.6 hPa 0 mm - 67 W/m² -
1788216022 32.22° C 64% 1009.6 hPa 0 mm - 61 W/m² -
1788215415 32.78° C 65% 1009.6 hPa 0 mm - 239 W/m² -
1788214817 32.78° C 64% 1009.3 hPa 0 mm - 172 W/m² -
1788214216 32.78° C 64% 1009.5 hPa 0 mm - 292 W/m² -

* Rain latest hour (hover to see other rain measurements)
** Current wind speed in m/s (hover to see current wind gust speed)